Showing default

KINEIS-5E, 62083

Orbit data source: Space-Track

KINEIS-5E, 62083 is a French payload satellite in SSO that was launched on Mon, 25 Nov 2024 UTC via an ELECTRON launch vehicle from the Rocket Lab Launch Complex (RLLC). Payload-class satellites include a variety of spacecraft equipped with specific instruments for various scientific and technological missions. These include communications satellites like Starlink; space stations such as the ISS; scientific satellites like the Hubble; Earth observation satellites from companies like Planet Labs, Umbra, and HawkEye 360; GPS; miniature CubeSats for education and research; and military/defense satellites.

Loading next visibility...
Identifier
62083, 2024-219C
Orbit
SSO
Country
Flag of FRFR
Related business
Manufacturer
KINEIS
Mission
Operational Commercial Communications
Bus & Motor
CUBESAT 16U, Unknown motor
Mass
28 kg wet, 28 kg dry
Launch date (UTC)
2024-11-25 (1 year ago)
Launch vehicle
ELECTRON
Launch site
Rocket Lab Launch Complex (RLLC)
Object type
Payload
Rocket body
Debris
Shape & HBR
Box + 2 Pan + 1 Ant, 1.0 m
Radar Cross Section
0.229 m², Medium (>0.1 m² and < 1m²)

Expand to show TLE details & history
Last TLE update: 7 hours ago

TLE from 7 hours ago
0 KINEIS-5E
1 62083U 24219C   26124.47851733  .00000600  00000-0  10265-3 0  9993
2 62083  97.8955 284.6732 0007441  55.4261 304.7648 14.72262711 77330
Epoch: 2026-05-04T11:29Z
TLE epoch observation values (Epoch: 2026-05-04T11:29:03.897Z)
Latitude
Longitude
-109.96017°
Altitude
653.883 km
Speed
7.532 km/s
True Right ascension
18h 58m 41s
True Declination
0° 00' 00"
Sunlit
Object was in full shadow at epoch
Visualization orbit readout
Latitude
Unknown
Longitude
Unknown
Altitude
Unknown
Speed
Unknown
Apparent Right ascension
Unknown
Apparent Declination
Unknown
Sunlit
N/A
Visualization observer readout
Local Sidereal Time
01:55:32
Azimuth
Unknown
Elevation
Unknown
Doppler factor
Unknown
Orbital elements
Apogee altitude
656.135 km
Perigee altitude
645.675 km
Semi-major axis
7,029.042 km
Eccentricity
0.00074
Inclination
97.8955°
RAAN
284.6732°
Arg. of periapsis
55.4261°
True anomaly
304.69472°
Mean anomaly
304.7648°
Eccentric anomaly
304.72976°
Mean motion
3.68298 °/min
Orbital period
97.75 mins
BSTAR
0.00010265
Loading maneuver chart data...
Computing Atmospheric mass density...
Loading historical data...
Loading historical data...
Loading historical data...
Loading historical data...
Loading historical data...
Loading historical data...
Loading historical data...

Documentation

Showing up to 5 results
|